#timestamp,LO_Frequency,Hit,StdDev 
1609664415.1,286046998.2,N
1609664416.0,286046998.2,N
1609664435.8,286046999.0,N
1609664455.6,286047000.2,N
1609664475.5,286047000.7,N
1609664495.3,286047000.5,N
1609664515.1,286047000.0,N
1609664535.9,286047002.5,N
1609664555.7,286047001.9,N
1609664575.6,286047002.2,N
1609664595.4,286047000.2,N
1609664615.2,286047000.3,N
1609664635.1,286047000.5,N
1609664636.0,286047000.5,N
1609664655.8,286047000.7,N
1609664675.7,286046999.9,N
1609664695.5,286047000.6,N
1609664715.3,286047000.6,N
1609664735.2,286047000.0,N
1609664755.9,286046999.9,N
1609664775.7,286047000.9,N
1609664795.6,286046998.3,N
1609664815.4,286047001.1,N
1609664835.3,286046998.1,N
1609664855.1,286046998.8,N
1609664875.8,286047001.0,N
1609664895.7,286046998.2,N
1609664915.5,286046998.5,N
1609664935.3,286046998.1,N
1609664955.2,286047001.1,N
1609664975.0,286047000.5,N
1609664975.9,286047000.5,N
1609664995.8,286047001.1,N
1609665015.6,286046998.4,N
1609665035.4,286046998.7,N
1609665055.3,286046998.5,N
1609665075.1,286046999.3,N
1609665095.8,286046997.8,N
1609665115.7,286046993.4,Y
1609665135.5,286046995.9,P
1609665155.4,286046993.9,P
1609665175.2,286046993.7,N
1609665195.0,286046993.1,N
1609665195.9,286046993.1,N
1609665215.8,286046991.8,Y
1609665235.6,286047001.1,P
1609665255.5,286047000.4,N
1609665275.3,286047000.8,N
1609665295.1,286047000.7,N
1609665315.9,286047001.2,N
1609665335.7,286046998.1,N
1609665355.6,286047001.1,N
1609665375.4,286046999.2,N
1609665395.2,286046999.6,N
1609665415.1,286046996.6,N
1609665416.0,286046996.6,N
1609665435.8,286046999.6,N
1609665455.7,286046999.6,N
1609665475.5,286046998.8,N
1609665495.3,286046999.6,N
1609665515.2,286046997.9,N
1609665535.0,286046993.4,Y
1609665535.9,286046993.4,P
1609665555.7,286046995.0,N
1609665575.6,286046997.7,N
1609665595.4,286046996.7,N
1609665615.3,286046994.0,N
1609665635.1,286046993.0,Y
1609665655.8,286046995.5,P
1609665675.7,286046995.7,P
1609665695.5,286046995.0,P
1609665715.4,286046995.3,Y
1609665735.6,286047002.4,P
1609665755.4,286047001.6,N
1609665775.3,286047002.1,N
1609665795.1,286047003.9,N
1609665796.0,286047003.9,N
1609665815.8,286047004.4,N
1609665835.7,286047003.4,N
1609665855.5,286047005.0,N
1609665875.3,286047006.0,N
1609665895.2,286047003.2,N
1609665915.0,286047004.3,N
1609665935.6,286047001.4,N
1609665955.4,286047002.5,N
1609665975.3,286047004.4,N
1609665995.1,286046999.8,N
1609666015.8,286047002.2,N
1609666035.7,286047002.0,N
1609666055.5,286047001.0,N
1609666075.4,286046999.2,N
1609666095.2,286046997.2,N
1609666115.0,286046994.9,N
1609666115.9,286046994.9,N
1609666135.8,286046995.1,N
1609666155.6,286046995.7,N
1609666175.5,286046998.0,N
1609666195.3,286046997.5,N
1609666215.1,286046996.8,N
1609666235.9,286046996.7,N
1609666255.7,286047000.5,N
1609666275.6,286046999.9,N
1609666295.4,286046999.8,N
1609666315.2,286047002.4,N
1609666335.1,286047002.6,N
1609666336.0,286047002.6,N
1609666355.8,286047002.0,N
1609666375.6,286047002.5,N
1609666395.5,286047003.4,N
1609666415.3,286047001.5,N
1609666435.2,286046999.8,N
1609666455.9,286047003.2,N
1609666475.7,286047002.1,N
1609666495.6,286047004.4,N
1609666515.4,286047003.9,N
1609666535.2,286047002.8,N
1609666555.1,286047000.1,N
1609666556.0,286047000.1,N
1609666575.8,286047001.4,N
1609666595.7,286047003.5,N
1609666615.5,286047006.0,N
1609666635.3,286047001.3,N
1609666655.2,286047002.8,N
1609666675.0,286047000.7,N
1609666675.9,286047000.7,N
1609666695.7,286047002.1,N
1609666715.6,286047001.6,N
1609666735.4,286047002.9,N
1609666755.3,286047005.5,N
1609666775.1,286047005.0,N
1609666776.0,286047005.0,Y
1609666825.9,286047005.7,E
1609666835.8,286047002.5,N
1609666855.6,286047001.2,P
1609666875.5,286047000.6,N
1609666895.3,286047000.6,N
1609666915.1,286047000.1,N
1609666935.9,286046998.1,N
1609666955.7,286046998.6,N
1609666975.6,286046996.8,N
1609666995.4,286046997.5,N
1609667015.2,286046995.4,N
1609667035.1,286046997.6,N
1609667036.0,286046997.6,N
1609667055.8,286046996.9,N
1609667075.7,286046999.1,N
1609667095.5,286046996.6,N
1609667115.3,286046997.2,N
1609667135.2,286046996.5,N
1609667155.0,286046999.1,N
1609667155.9,286046999.1,N
1609667175.7,286046997.3,N
1609667195.6,286046997.2,N
1609667215.4,286046997.5,N
1609667235.8,286046999.6,N
1609667255.7,286046999.6,N
1609667275.5,286046996.5,N
1609667295.4,286046999.4,N
1609667315.2,286046999.3,N
1609667335.0,286046998.9,N
1609667335.9,286046998.9,N
1609667355.8,286046995.0,Y
1609667375.6,286046996.6,P
1609667395.4,286046999.1,N
1609667415.3,286046998.8,N
1609667435.1,286046998.3,N
1609667455.9,286046998.2,N
1609667475.7,286047000.9,N
1609667495.5,286046998.3,N
1609667515.4,286046998.2,N
1609667535.2,286047000.5,N
1609667555.0,286047000.2,N
1609667555.9,286047000.2,N
1609667575.8,286047002.5,N
1609667595.6,286047000.7,N
1609667615.5,286047000.6,N
1609667635.3,286047000.2,N
1609667655.1,286047001.9,N
1609667675.9,286047002.1,N
1609667695.7,286047002.0,N
1609667715.5,286046998.2,N
1609667735.4,286046998.6,N
1609667755.2,286047002.3,N
1609667775.1,286046999.8,N
1609667776.0,286046999.8,N
1609667795.8,286047002.1,N
1609667815.6,286047002.3,N
1609667835.5,286047002.3,N
1609667855.3,286047000.6,N
1609667875.1,286047000.3,N
1609667895.9,286047001.8,N
1609667915.7,286047000.7,N
1609667935.6,286047000.6,N
1609667955.0,286046999.0,N
1609667955.9,286046999.0,N
1609667975.8,286046998.4,N
1609667995.6,286046998.1,N
